FW6732 Weather Reports


time (UTC)temp
C
wind
direction
speed
KPH
gust
KPH
rain 1hr
cm
rain 24hr
cm
rain mn
cm
humidity
%
barometer
mb
20260906194503 38 279 0.0 4.8 0.00 0.00 0.00 40 1010.8
20260906194003 38 217 0.0 3.2 0.00 0.00 0.00 41 1011.0
20260906193503 38 215 0.0 3.2 0.00 0.00 0.00 40 1011.0
20260906193003 38 229 0.0 3.2 0.00 0.00 0.00 43 1011.0
20260906192503 38 231 0.0 6.4 0.00 0.00 0.00 40 1011.1
20260906192003 38 293 0.0 6.4 0.00 0.00 0.00 41 1011.3
20260906191503 38 292 0.0 4.8 0.00 0.00 0.00 43 1011.3
20260906191003 38 231 0.0 6.4 0.00 0.00 0.00 40 1011.4
20260906190503 38 194 0.0 6.4 0.00 0.00 0.00 45 1011.4
20260906190003 37 329 0.0 3.2 0.00 0.00 0.00 44 1011.5
20260906185524 37 14 0.0 3.2 0.00 0.00 0.00 45 1011.6
20260906185024 38 109 0.0 3.2 0.00 0.00 0.00 46 1011.6
20260906184503 37 174 0.0 3.2 0.00 0.00 0.00 47 1011.6
20260906184003 37 192 0.0 3.2 0.00 0.00 0.00 45 1011.6
20260906183503 37 189 0.0 3.2 0.00 0.00 0.00 42 1011.8
20260906183003 37 188 0.0 3.2 0.00 0.00 0.00 45 1011.8
20260906182503 37 188 0.0 1.6 0.00 0.00 0.00 45 1012.1
20260906182003 37 188 0.0 1.6 0.00 0.00 0.00 46 1012.1
20260906181524 37 188 0.0 3.2 0.00 0.00 0.00 46 1012.2
20260906181003 36 212 0.0 4.8 0.00 0.00 0.00 46 1012.3
20260906180503 36 260 0.0 4.8 0.00 0.00 0.00 47 1012.4
20260906180004 37 320 0.0 3.2 0.00 0.00 0.00 44 1012.5
20260906175503 37 326 1.6 4.8 0.00 0.00 0.00 46 1012.6
20260906175003 37 327 0.0 4.8 0.00 0.00 0.00 43 1012.6
20260906174503 36 342 0.0 1.6 0.00 0.00 0.00 48 1012.8
20260906174003 37 342 0.0 1.6 0.00 0.00 0.00 47 1012.9
20260906173503 36 344 1.6 3.2 0.00 0.00 0.00 45 1013.0
20260906173003 36 343 1.6 4.8 0.00 0.00 0.00 43 1013.1
20260906172503 36 339 1.6 4.8 0.00 0.00 0.00 47 1013.1
20260906172003 36 325 1.6 4.8 0.00 0.00 0.00 47 1013.2
20260906171503 36 216 0.0 3.2 0.00 0.00 0.00 47 1013.2
20260906171003 35 193 0.0 3.2 0.00 0.00 0.00 49 1013.2
20260906170503 35 193 0.0 3.2 0.00 0.00 0.00 50 1013.4
20260906170003 35 193 0.0 3.2 0.00 0.00 0.00 54 1013.5
20260906165503 34 191 0.0 3.2 0.00 0.00 0.00 53 1013.5
20260906165003 34 187 0.0 3.2 0.00 0.00 0.00 52 1013.6
20260906164503 33 180 0.0 1.6 0.00 0.00 0.00 57 1013.7
20260906164003 33 103 0.0 1.6 0.00 0.00 0.00 57 1013.7
20260906163503 33 104 0.0 1.6 0.00 0.00 0.00 59 1013.6
20260906163003 33 107 0.0 1.6 0.00 0.00 0.00 61 1013.7
20260906162503 32 107 0.0 1.6 0.00 0.00 0.00 61 1013.8
20260906162003 32 107 0.0 3.2 0.00 0.00 0.00 61 1013.8
20260906161503 32 107 0.0 3.2 0.00 0.00 0.00 59 1013.9
20260906161003 32 0 0.0 0.0 0.00 0.00 0.00 62 1013.8
20260906160503 32 0 0.0 0.0 0.00 0.00 0.00 63 1013.9
20260906160003 32 0 0.0 0.0 0.00 0.00 0.00 64 1013.7
20260906155503 32 0 0.0 0.0 0.00 0.00 0.00 64 1013.9
20260906155003 32 0 0.0 0.0 0.00 0.00 0.00 64 1013.9
20260906154503 32 109 0.0 1.6 0.00 0.00 0.00 63 1013.9
20260906154003 32 109 0.0 1.6 0.00 0.00 0.00 63 1013.8
20260906153524 32 109 0.0 1.6 0.00 0.00 0.00 66 1013.7
20260906153003 31 109 0.0 1.6 0.00 0.00 0.00 67 1013.7
20260906152503 31 0 0.0 0.0 0.00 0.00 0.00 67 1013.7
20260906152003 31 0 0.0 0.0 0.00 0.00 0.00 66 1013.8
20260906151503 31 109 0.0 3.2 0.00 0.00 0.00 67 1013.7
20260906151024 31 109 0.0 3.2 0.00 0.00 0.00 66 1013.6
20260906150503 30 109 0.0 1.6 0.00 0.00 0.00 66 1013.6
20260906150004 30 109 0.0 1.6 0.00 0.00 0.00 68 1013.5
20260906145503 30 109 0.0 1.6 0.00 0.00 0.00 67 1013.5
20260906145003 30 0 0.0 0.0 0.00 0.00 0.00 70 1013.6
20260906144503 30 0 0.0 0.0 0.00 0.00 0.00 72 1013.6
20260906144003 29 0 0.0 0.0 0.00 0.00 0.00 71 1013.7
20260906143503 29 0 0.0 0.0 0.00 0.00 0.00 72 1013.6
20260906143003 28 0 0.0 0.0 0.00 0.00 0.00 73 1013.5
20260906142504 28 0 0.0 0.0 0.00 0.00 0.00 73 1013.5
20260906142005 28 0 0.0 0.0 0.00 0.00 0.00 73 1013.5
20260906141503 28 0 0.0 0.0 0.00 0.00 0.00 74 1013.5
20260906141004 28 0 0.0 0.0 0.00 0.00 0.00 75 1013.5
20260906140524 28 0 0.0 0.0 0.00 0.00 0.00 76 1013.5
20260906140007 27 0 0.0 0.0 0.00 0.00 0.00 78 1013.4
20260906135505 27 0 0.0 0.0 0.00 0.00 0.00 78 1013.4
20260906135006 27 0 0.0 0.0 0.00 0.00 0.00 81 1013.4
20260906134509 26 0 0.0 0.0 0.00 0.00 0.00 81 1013.3
20260906134004 26 0 0.0 0.0 0.00 0.00 0.00 83 1013.3
20260906133504 26 0 0.0 0.0 0.00 0.00 0.00 84 1013.4
20260906133004 26 0 0.0 0.0 0.00 0.00 0.00 85 1013.3
20260906132504 26 0 0.0 0.0 0.00 0.00 0.00 85 1013.4
20260906132003 25 111 0.0 1.6 0.00 0.00 0.00 86 1013.4
20260906131525 25 111 0.0 1.6 0.00 0.00 0.00 86 1013.4
20260906131004 25 0 0.0 0.0 0.00 0.00 0.00 87 1013.3
20260906130524 25 0 0.0 0.0 0.00 0.00 0.00 86 1013.4
20260906130024 25 0 0.0 0.0 0.00 0.00 0.00 86 1013.3
20260906125503 25 0 0.0 0.0 0.00 0.00 0.00 86 1013.3
20260906125003 25 0 0.0 0.0 0.00 0.00 0.00 86 1013.2
20260906124524 25 0 0.0 0.0 0.00 0.00 0.00 85 1013.2
20260906124003 25 0 0.0 0.0 0.00 0.00 0.00 85 1013.1
20260906123503 25 0 0.0 0.0 0.00 0.00 0.00 85 1013.1
20260906123024 25 0 0.0 0.0 0.00 0.00 0.00 85 1013.1
20260906122503 25 0 0.0 0.0 0.00 0.00 0.00 85 1013.1
20260906122003 25 0 0.0 0.0 0.00 0.00 0.00 85 1013.0
20260906121503 25 0 0.0 0.0 0.00 0.00 0.00 85 1012.9
20260906121003 25 0 0.0 0.0 0.00 0.00 0.00 84 1012.8
20260906120525 25 0 0.0 0.0 0.00 0.00 0.00 84 1012.8
20260906120003 25 0 0.0 0.0 0.00 0.00 0.00 84 1012.4
20260906115503 25 0 0.0 0.0 0.00 0.00 0.00 84 1012.4
20260906115024 25 0 0.0 0.0 0.00 0.00 0.00 84 1012.4
20260906114503 25 0 0.0 0.0 0.00 0.00 0.00 84 1012.4
20260906114003 25 0 0.0 0.0 0.00 0.00 0.00 84 1012.3
20260906113503 25 0 0.0 0.0 0.00 0.00 0.00 84 1012.5
20260906113024 25 0 0.0 0.0 0.00 0.00 0.00 84 1012.3
20260906112524 25 0 0.0 0.0 0.00 0.00 0.00 84 1012.3
20260906112003 25 0 0.0 0.0 0.00 0.00 0.00 84 1012.3
20260906111503 25 0 0.0 0.0 0.00 0.00 0.00 84 1012.2
20260906111003 25 0 0.0 0.0 0.00 0.00 0.00 84 1012.2
20260906110503 25 0 0.0 0.0 0.00 0.00 0.00 84 1012.2
20260906110003 25 0 0.0 0.0 0.00 0.00 0.00 83 1012.1
20260906105503 25 0 0.0 0.0 0.00 0.00 0.00 83 1012.1
20260906105003 25 0 0.0 0.0 0.00 0.00 0.00 83 1012.2
20260906104503 25 0 0.0 0.0 0.00 0.00 0.00 83 1012.0
20260906104024 25 0 0.0 0.0 0.00 0.00 0.00 83 1012.1
20260906103503 25 0 0.0 0.0 0.00 0.00 0.00 83 1012.0
20260906103003 25 0 0.0 0.0 0.00 0.00 0.00 83 1012.0
20260906102503 25 0 0.0 0.0 0.00 0.00 0.00 83 1012.0
20260906102003 25 0 0.0 0.0 0.00 0.00 0.00 83 1012.0
20260906101502 25 0 0.0 0.0 0.00 0.00 0.00 83 1012.0
20260906101002 25 0 0.0 0.0 0.00 0.00 0.00 83 1012.0
20260906100003 25 0 0.0 0.0 0.00 0.00 0.00 83 1012.0
20260906095503 25 0 0.0 0.0 0.00 0.00 0.00 83 1012.0
20260906095003 25 0 0.0 0.0 0.00 0.00 0.00 83 1012.1
20260906094503 25 0 0.0 0.0 0.00 0.00 0.00 83 1012.0
20260906094003 26 0 0.0 0.0 0.00 0.00 0.00 83 1012.0
20260906093503 26 0 0.0 0.0 0.00 0.00 0.00 83 1011.8
20260906093003 26 0 0.0 0.0 0.00 0.00 0.00 83 1011.6
20260906092503 26 0 0.0 0.0 0.00 0.00 0.00 83 1011.7
20260906092003 26 0 0.0 0.0 0.00 0.00 0.00 83 1011.7
20260906091503 26 0 0.0 0.0 0.00 0.00 0.00 83 1011.6
20260906091024 26 0 0.0 0.0 0.00 0.00 0.00 83 1011.6
20260906090503 26 0 0.0 0.0 0.00 0.00 0.00 83 1011.6
20260906090003 26 0 0.0 0.0 0.00 0.00 0.00 83 1011.6
20260906085503 26 0 0.0 0.0 0.00 0.00 0.00 83 1011.5
20260906085024 26 0 0.0 0.0 0.00 0.00 0.00 82 1011.6
20260906084503 26 0 0.0 0.0 0.00 0.00 0.00 82 1011.5
20260906084003 26 0 0.0 0.0 0.00 0.00 0.00 82 1011.4
20260906083524 26 0 0.0 0.0 0.00 0.00 0.00 82 1011.4
20260906083003 26 0 0.0 0.0 0.00 0.00 0.00 82 1011.4
20260906082524 26 0 0.0 0.0 0.00 0.00 0.00 81 1011.4
20260906082003 26 0 0.0 0.0 0.00 0.00 0.00 81 1011.2
20260906081503 26 0 0.0 0.0 0.00 0.00 0.00 80 1011.3
20260906081003 26 0 0.0 0.0 0.00 0.00 0.00 80 1011.2
20260906080503 26 0 0.0 0.0 0.00 0.00 0.00 80 1011.3
20260906080003 26 0 0.0 0.0 0.00 0.00 0.00 80 1011.3
20260906075503 26 0 0.0 0.0 0.00 0.00 0.00 79 1011.3
20260906075003 26 0 0.0 0.0 0.00 0.00 0.00 79 1011.2
20260906074503 26 0 0.0 0.0 0.00 0.00 0.00 79 1011.2
20260906074024 26 0 0.0 0.0 0.00 0.00 0.00 79 1011.2
20260906073503 26 0 0.0 0.0 0.00 0.00 0.00 79 1011.1
20260906073003 26 0 0.0 0.0 0.00 0.00 0.00 79 1011.1
20260906072503 26 0 0.0 0.0 0.00 0.00 0.00 78 1011.2
20260906072003 26 0 0.0 0.0 0.00 0.00 0.00 78 1011.2
20260906071503 26 0 0.0 0.0 0.00 0.00 0.00 78 1011.2
20260906071003 27 0 0.0 0.0 0.00 0.00 0.00 78 1011.3
20260906070503 27 0 0.0 0.0 0.00 0.00 0.00 77 1011.5
20260906070003 27 0 0.0 0.0 0.00 0.00 0.00 77 1011.4
20260906065503 27 0 0.0 0.0 0.00 0.00 0.00 76 1011.4
20260906065003 27 0 0.0 0.0 0.00 0.00 0.00 76 1011.2
20260906064503 27 0 0.0 0.0 0.00 0.00 0.00 76 1011.2
20260906064003 27 0 0.0 0.0 0.00 0.00 0.00 76 1011.2
20260906063503 27 0 0.0 0.0 0.00 0.00 0.00 76 1011.3
20260906063024 27 0 0.0 0.0 0.00 0.00 0.00 76 1011.3
20260906062503 27 0 0.0 0.0 0.00 0.00 0.00 76 1011.4
20260906062003 27 0 0.0 0.0 0.00 0.00 0.00 75 1011.4
20260906061503 27 0 0.0 0.0 0.00 0.00 0.00 75 1011.4
20260906061003 27 0 0.0 0.0 0.00 0.00 0.00 75 1011.4
20260906060503 27 0 0.0 0.0 0.00 0.00 0.00 75 1011.3
20260906060003 27 0 0.0 0.0 0.00 0.00 0.00 75 1011.4
20260906055503 27 0 0.0 0.0 0.00 0.00 0.00 74 1011.4
20260906055024 27 0 0.0 0.0 0.00 0.00 0.00 74 1011.4
20260906054503 27 0 0.0 0.0 0.00 0.00 0.00 74 1011.5
20260906054024 27 0 0.0 0.0 0.00 0.00 0.00 74 1011.4
20260906053503 27 0 0.0 0.0 0.00 0.00 0.00 74 1011.4
20260906053003 27 0 0.0 0.0 0.00 0.00 0.00 73 1011.3
20260906052503 27 0 0.0 0.0 0.00 0.00 0.00 73 1011.4
20260906052003 27 0 0.0 0.0 0.00 0.00 0.00 73 1011.3
20260906051503 27 0 0.0 0.0 0.00 0.00 0.00 73 1011.2
20260906051003 28 0 0.0 0.0 0.00 0.00 0.00 73 1011.2
20260906050503 28 0 0.0 0.0 0.00 0.00 0.00 72 1011.2
20260906050006 28 0 0.0 0.0 0.00 0.00 0.00 71 1011.2
20260906045503 28 0 0.0 0.0 0.00 0.00 0.00 71 1011.1
20260906045003 28 0 0.0 0.0 0.00 0.00 0.00 71 1011.1
20260906044503 28 0 0.0 0.0 0.00 0.00 0.00 71 1011.1
20260906044003 28 0 0.0 0.0 0.00 0.00 0.00 70 1011.2
20260906043524 28 0 0.0 0.0 0.00 0.00 0.00 70 1011.1
20260906043003 28 0 0.0 0.0 0.00 0.00 0.00 70 1011.1
20260906042503 28 0 0.0 0.0 0.00 0.00 0.00 70 1011.2
20260906042003 28 0 0.0 0.0 0.00 0.00 0.00 70 1011.2
20260906041524 28 0 0.0 0.0 0.00 0.00 0.00 69 1011.2
20260906041003 28 0 0.0 0.0 0.00 0.00 0.00 70 1011.2
20260906040503 28 0 0.0 0.0 0.00 0.00 0.00 69 1011.2
20260906040003 28 0 0.0 0.0 0.00 0.00 0.00 69 1011.4
20260906035524 28 0 0.0 0.0 0.00 0.00 0.00 69 1011.2
20260906035003 29 0 0.0 0.0 0.00 0.00 0.00 69 1011.1
20260906034524 29 0 0.0 0.0 0.00 0.00 0.00 69 1011.2
20260906034003 29 0 0.0 0.0 0.00 0.00 0.00 68 1011.2
20260906033503 29 0 0.0 0.0 0.00 0.00 0.00 68 1011.2
20260906033003 29 0 0.0 0.0 0.00 0.00 0.00 67 1011.0
20260906032503 29 0 0.0 0.0 0.00 0.00 0.00 66 1010.9
20260906032003 30 0 0.0 0.0 0.00 0.00 0.00 66 1011.1
20260906031524 30 0 0.0 0.0 0.00 0.00 0.00 65 1011.0
20260906031003 30 0 0.0 0.0 0.00 0.00 0.00 65 1011.1
20260906030503 30 0 0.0 0.0 0.00 0.00 0.00 65 1011.1
20260906030003 30 0 0.0 0.0 0.00 0.00 0.00 65 1011.1
20260906025503 30 0 0.0 0.0 0.00 0.00 0.00 65 1011.1
20260906025003 30 0 0.0 0.0 0.00 0.00 0.00 64 1011.0
20260906024524 30 0 0.0 0.0 0.00 0.00 0.00 64 1010.9
20260906024003 30 0 0.0 0.0 0.00 0.00 0.00 63 1010.8
20260906023503 30 0 0.0 0.0 0.00 0.00 0.00 63 1010.6
20260906023024 30 0 0.0 0.0 0.00 0.00 0.00 63 1010.6
20260906022503 30 0 0.0 0.0 0.00 0.00 0.00 62 1010.5
20260906022003 31 0 0.0 0.0 0.00 0.00 0.00 62 1010.3
20260906021503 31 0 0.0 0.0 0.00 0.00 0.00 61 1010.2
20260906021003 31 0 0.0 0.0 0.00 0.00 0.00 60 1010.2
20260906020503 31 0 0.0 0.0 0.00 0.00 0.00 60 1010.2
20260906020003 31 0 0.0 0.0 0.00 0.00 0.00 60 1010.3
20260906015503 31 0 0.0 0.0 0.00 0.00 0.00 59 1010.3
20260906015003 31 0 0.0 0.0 0.00 0.00 0.00 59 1010.2
20260906014503 31 0 0.0 0.0 0.00 0.00 0.00 58 1010.2
20260906014003 31 0 0.0 0.0 0.00 0.00 0.00 57 1010.0
20260906013503 32 0 0.0 0.0 0.00 0.00 0.00 56 1010.0
20260906013003 32 0 0.0 0.0 0.00 0.00 0.00 56 1010.0
20260906012503 32 0 0.0 0.0 0.00 0.00 0.00 55 1009.9
20260906012024 32 0 0.0 0.0 0.00 0.00 0.00 54 1009.9
20260906011524 32 0 0.0 0.0 0.00 0.00 0.00 54 1009.9
20260906011003 32 0 0.0 0.0 0.00 0.00 0.00 54 1009.9
20260906010503 32 0 0.0 0.0 0.00 0.00 0.00 53 1009.9
20260906010003 33 0 0.0 0.0 0.00 0.00 0.00 53 1009.9
20260906005524 33 0 0.0 0.0 0.00 0.00 0.00 52 1009.9
20260906005003 33 0 0.0 0.0 0.00 0.00 0.00 53 1009.9
20260906004503 33 0 0.0 0.0 0.00 0.00 0.00 51 1009.9
20260906004003 33 0 0.0 0.0 0.00 0.00 0.00 51 1009.9
20260906003503 33 0 0.0 0.0 0.00 0.00 0.00 51 1009.9
20260906003003 33 0 0.0 0.0 0.00 0.00 0.00 51 1009.8
20260906002524 33 0 0.0 0.0 0.00 0.00 0.00 51 1009.8
20260906002003 34 0 0.0 0.0 0.00 0.00 0.00 51 1009.8
20260906001503 34 0 0.0 0.0 0.00 0.00 0.00 51 1009.7
20260906001003 34 0 0.0 0.0 0.00 0.00 0.00 52 1009.7
20260906000503 34 0 0.0 0.0 0.00 0.00 0.00 52 1009.6
20260906000003 34 0 0.0 0.0 0.00 0.00 0.00 52 1009.6
20260905235503 34 0 0.0 0.0 0.00 0.00 0.00 53 1009.6
20260905235003 34 0 0.0 0.0 0.00 0.00 0.00 53 1009.6
20260905234524 34 0 0.0 0.0 0.00 0.00 0.00 51 1009.5
20260905234003 35 0 0.0 0.0 0.00 0.00 0.00 51 1009.4
20260905233524 35 0 0.0 0.0 0.00 0.00 0.00 52 1009.4
20260905233003 35 0 0.0 0.0 0.00 0.00 0.00 51 1009.5
20260905232503 35 0 0.0 0.0 0.00 0.00 0.00 49 1009.4
20260905232024 35 0 0.0 0.0 0.00 0.00 0.00 48 1009.4
20260905231503 35 0 0.0 0.0 0.00 0.00 0.00 48 1009.4
20260905231003 35 0 0.0 0.0 0.00 0.00 0.00 48 1009.3
20260905230503 36 0 0.0 0.0 0.00 0.00 0.00 48 1009.3
20260905230003 36 110 0.0 1.6 0.00 0.00 0.00 47 1009.3
20260905225503 36 104 0.0 1.6 0.00 0.00 0.00 46 1009.4
20260905225003 36 103 0.0 1.6 0.00 0.00 0.00 46 1009.3
20260905224503 36 111 0.0 3.2 0.00 0.00 0.00 46 1009.4
20260905224024 36 113 0.0 3.2 0.00 0.00 0.00 44 1009.4
20260905223524 37 156 0.0 3.2 0.00 0.00 0.00 44 1009.5
20260905223024 37 192 0.0 3.2 0.00 0.00 0.00 45 1009.5
20260905222503 37 195 0.0 3.2 0.00 0.00 0.00 45 1009.6
20260905222003 37 146 0.0 1.6 0.00 0.00 0.00 46 1009.5
20260905221524 36 0 0.0 0.0 0.00 0.00 0.00 47 1009.6
20260905221003 37 53 0.0 3.2 0.00 0.00 0.00 46 1009.6
20260905220503 37 54 0.0 3.2 0.00 0.00 0.00 45 1009.6
20260905220003 37 58 0.0 3.2 0.00 0.00 0.00 45 1009.6
20260905215503 37 215 0.0 1.6 0.00 0.00 0.00 46 1009.7
20260905215024 37 214 0.0 3.2 0.00 0.00 0.00 47 1009.8
20260905214503 37 202 0.0 3.2 0.00 0.00 0.00 44 1009.9
20260905214003 37 110 0.0 1.6 0.00 0.00 0.00 45 1010.0
20260905213503 37 108 0.0 3.2 0.00 0.00 0.00 44 1010.0
20260905213003 37 152 0.0 6.4 0.00 0.00 0.00 45 1010.1
20260905212524 37 227 0.0 6.4 0.00 0.00 0.00 45 1010.1
20260905212003 37 336 0.0 1.6 0.00 0.00 0.00 45 1010.2
20260905211503 37 334 0.0 3.2 0.00 0.00 0.00 48 1010.3
20260905211003 37 258 0.0 4.8 0.00 0.00 0.00 45 1010.3
20260905210524 37 244 0.0 4.8 0.00 0.00 0.00 42 1010.4
20260905210024 37 271 0.0 4.8 0.00 0.00 0.00 44 1010.5
20260905205524 37 36 0.0 4.8 0.00 0.00 0.00 46 1010.6
20260905205003 37 85 0.0 6.4 0.00 0.00 0.00 46 1010.6
20260905204503 37 117 1.6 6.4 0.00 0.00 0.00 47 1010.6
20260905204003 37 124 1.6 3.2 0.00 0.00 0.00 48 1010.8
20260905203503 37 122 0.0 3.2 0.00 0.00 0.00 46 1010.9
20260905203003 37 241 0.0 3.2 0.00 0.00 0.00 48 1011.0
20260905202524 37 246 0.0 3.2 0.00 0.00 0.00 48 1010.9
20260905202003 37 252 0.0 3.2 0.00 0.00 0.00 47 1011.2
20260905201503 37 309 0.0 1.6 0.00 0.00 0.00 47 1011.2
20260905201024 37 309 0.0 1.6 0.00 0.00 0.00 45 1011.2
20260905200503 37 248 0.0 4.8 0.00 0.00 0.00 49 1011.4
20260905200003 37 277 1.6 4.8 0.00 0.00 0.00 46 1011.7
20260905195503 37 341 1.6 4.8 0.00 0.00 0.00 47 1011.7
20260905195003 37 85 1.6 6.4 0.00 0.00 0.00 47 1011.8